Regional Weather Roundup
Issued by NWS Green Bay, WI

Home | Current Version | Previous Version | Text Only | Print | Product List | Glossary On
Versions: 1 2 3 4 5 6 7 8 9 10 11 12 13 14 15 16 17 18 19 20 21 22 23 24 25 26 27 28 29 30 31 32 33 34 35 36 37 38 39 40 41 42 43 44 45 46 47 48 49 50
000
ASUS43 KGRB 032000
RWRGRB

NORTH-CENTRAL AND NORTHEAST WISCONSIN REGIONAL WEATHER ROUNDUP
NATIONAL WEATHER SERVICE GREEN BAY WI
300 PM CDT MON AUG 03 2015

WIZ005-009-010>012-018-019-032100-
NORTH CENTRAL WISCONSIN

CITY           SKY/WX    TMP DP  RH WIND       PRES   REMARKS
IRONWOOD       CLOUDY    66  54  63 NW15G23   29.81S
MANITOWISH WTR NOT AVBL
ARBOR VITAE    NOT AVBL
EAGLE RIVER    NOT AVBL
LAND O LAKES   NOT AVBL
RHINELANDER    CLOUDY    69  51  52 NW8       29.84S
PHILLIPS       CLOUDY    65  54  65 NW5       29.86R
ANTIGO         NOT AVBL
TOMAHAWK       PTSUNNY   70  52  53 NW14      29.85S
MERRILL        NOT AVBL
$$

WIZ013-073-032100-
NORTHEAST WISCONSIN

CITY           SKY/WX    TMP DP  RH WIND       PRES   REMARKS
IRON MOUNTAIN  CLOUDY    68  52  56 NW15      29.78F
MARINETTE      CLOUDY    72  50  46 NW10G18   29.76S
OCONTO         CLOUDY    75  51  43 W12G18    29.77S
$$

WIZ017-030-035>037-045-032100-
CENTRAL WISCONSIN

CITY           SKY/WX    TMP DP  RH WIND       PRES   REMARKS
MEDFORD        NOT AVBL
WAUSAU         PTSUNNY   74  50  42 NW14G24   29.83S
MOSINEE        NOT AVBL
MARSHFIELD     PTSUNNY   75  50  41 NW17G24   29.86R
WISC RAPIDS    PTSUNNY   78  46  32 W16G24    29.85F
STEVENS POINT  NOT AVBL
WAUPACA        PTSUNNY   78  47  33 W14G22    29.82F
SHAWANO        NOT AVBL
CLINTONVILLE   PTSUNNY   77  46  33 NW18      29.80F
$$

WIZ038-039-048-051-032100-
FOX VALLEY

CITY           SKY/WX    TMP DP  RH WIND       PRES   REMARKS
NWS GREEN BAY  PTSUNNY   76  51  41 W13G21    29.80S
APPLETON       PTSUNNY   75  45  33 W17G23    29.82S
OSHKOSH        MOSUNNY   78  50  37 W15       29.81F
FOND DU LAC    SUNNY     79  50  36 NW14G23   29.82F
$$

WIZ022-050-052-032100-
EAST CENTRAL WISCONSIN

CITY           SKY/WX    TMP DP  RH WIND       PRES   REMARKS
STURGEON BAY   PTSUNNY   72  48  43 W9        29.80S
MANITOWOC      NOT AVBL
SHEBOYGAN      SUNNY     76  50  40 NW14G26   29.81F
$$

LMZ563-521-522-541>543-032100-
LAKESHORE

STATION/POSITION TIME  TEMP    WIND        PRES    VSBY  WAVE
                       AIR SEA DIR/SP/G                  HT/PER
                 (UTC) (F)     (DEG/KT/KT) (MB)    (MI)  (FT/S)
SHEBOYGAN LKSHOR 1900   73     290/ 14/ 17 1009.7F
KEWAUNEE LKSHORE 1900   74     300/  9/ 13 1008.2F
NORTHPORT PIER   1900   72     220/  7/ 13 1007.8S
N MID LAKE BUOY  1850   68 67  210/ 10/ 12 1007.4F         1/ 5
S GREEN BAY BUOY 1900   71 72  240/  8/  8 1010.0F
SISTER BAY LKSHO 1918   74     240/ 11/ 12   N/A
CHAMBERS ISLAND  1900   72     210/  6/  9 1007.8F
MENOMINEE LKSHOR 1900   74     260/  8/ 10 1008.7F
$$



USA.gov is the U.S. government's official web portal to all federal, state and local government web resources and services.